JI1PZF-13 Weather Reports


time (UTC)temp
C
wind
direction
speed
KPH
gust
KPH
rain 1hr
cm
rain 24hr
cm
rain mn
cm
humidity
%
barometer
mb
20260505153337 17 149 0.0 1.6 0.00 0.00 0.00 67 1024.4
20260505151824 17 223 0.0 0.0 0.00 0.00 0.00 67 1024.5
20260505140329 17 209 0.0 4.8 0.00 0.00 0.00 59 1024.8
20260505124821 17 102 0.0 3.2 0.00 0.00 0.00 57 1024.6
20260505123330 17 76 0.0 1.6 0.00 0.00 0.00 57 1024.6
20260505121839 17 94 0.0 4.8 0.00 0.00 0.00 56 1024.5
20260505120323 17 105 0.0 0.0 0.00 0.00 0.00 56 1024.5
20260505114833 17 314 0.0 3.2 0.00 0.00 0.00 55 1024.5
20260505113401 17 199 0.0 1.6 0.00 0.00 0.00 55 1024.5
20260505111823 17 219 0.0 19.3 0.00 0.00 0.00 54 1024.4
20260505110327 17 162 0.0 1.6 0.00 0.00 0.00 54 1024.2
20260505101845 18 84 0.0 3.2 0.00 0.00 0.00 46 1023.7
20260505100324 18 123 0.0 1.6 0.00 0.00 0.00 43 1023.4
20260505094850 18 81 0.0 1.6 0.00 0.00 0.00 42 1023.3
20260505093353 18 169 0.0 1.6 0.00 0.00 0.00 40 1023.3
20260505091834 18 191 0.0 12.9 0.00 0.00 0.00 42 1022.9
20260505090319 19 107 0.0 1.6 0.00 0.00 0.00 47 1022.7
20260505084844 19 97 0.0 1.6 0.00 0.00 0.00 45 1022.5
20260505083329 20 194 0.0 11.3 0.00 0.00 0.00 47 1022.4
20260505081831 20 207 0.0 4.8 0.00 0.00 0.00 46 1022.3
20260505080356 21 169 0.0 16.1 0.00 0.00 0.00 44 1022.3
20260505073330 22 159 0.0 1.6 0.00 0.00 0.00 38 1021.8
20260505071834 22 80 0.0 14.5 0.00 0.00 0.00 32 1021.6
20260505070401 22 111 0.0 1.6 0.00 0.00 0.00 30 1021.5
20260505064824 23 234 0.0 3.2 0.00 0.00 0.00 26 1021.4
20260505063334 23 92 0.0 1.6 0.00 0.00 0.00 23 1021.2
20260505061819 23 131 0.0 1.6 0.00 0.00 0.00 22 1021.2
20260505060323 23 103 0.0 1.6 0.00 0.00 0.00 21 1021.0
20260505054828 23 204 0.0 1.6 0.00 0.00 0.00 21 1021.0
20260505053338 23 63 0.0 12.9 0.00 0.00 0.00 22 1021.0
20260505051845 24 107 0.0 1.6 0.00 0.00 0.00 22 1021.1
20260505050325 24 211 0.0 1.6 0.00 0.00 0.00 19 1021.3
20260505040345 23 282 0.0 1.6 0.00 0.00 0.00 21 1021.5
20260505034823 22 52 0.0 0.0 0.00 0.00 0.00 21 1021.6
20260505033330 23 181 0.0 1.6 0.00 0.00 0.00 21 1021.5
20260505031856 22 306 0.0 3.2 0.00 0.00 0.00 22 1021.6
20260505030320 22 74 0.0 1.6 0.00 0.00 0.00 22 1021.7
20260505024824 21 21 0.0 1.6 0.00 0.00 0.00 22 1021.6
20260505023346 21 73 0.0 1.6 0.00 0.00 0.00 24 1021.7
20260505021833 21 252 0.0 1.6 0.00 0.00 0.00 23 1021.8
20260505020344 21 296 0.0 3.2 0.00 0.00 0.00 24 1021.9
20260505014845 20 338 0.0 9.7 0.00 0.00 0.00 25 1021.8
20260505013329 20 304 0.0 1.6 0.00 0.00 0.00 25 1021.8
20260505011833 20 355 1.6 19.3 0.00 0.00 0.00 26 1021.6
20260505010335 20 351 0.0 1.6 0.00 0.00 0.00 27 1021.8
20260505004833 19 17 0.0 1.6 0.00 0.00 0.00 29 1021.6
20260505003339 18 290 0.0 4.8 0.00 0.00 0.00 30 1021.6
20260505001843 18 94 0.0 1.6 0.00 0.00 0.00 31 1021.5
20260505000320 18 287 0.0 3.2 0.00 0.00 0.00 32 1021.5
20260504234842 17 320 0.0 3.2 0.00 0.00 0.00 33 1021.5
20260504233320 17 304 0.0 20.9 0.00 0.00 0.00 33 1021.6
20260504231824 17 295 0.0 4.8 0.00 0.00 0.00 34 1021.5
20260504230328 16 281 0.0 6.4 0.00 0.00 0.00 36 1021.4
20260504224830 16 302 0.0 3.2 0.00 0.00 0.00 37 1021.3
20260504223335 16 296 0.0 3.2 0.00 0.00 0.00 38 1021.0
20260504221838 16 288 0.0 16.1 0.00 0.00 0.00 39 1021.0
20260504220320 15 279 0.0 16.1 0.00 0.00 0.00 41 1020.9
20260504214843 15 286 0.0 8.0 0.00 0.10 0.00 42 1020.7
20260504213323 15 304 0.0 3.2 0.00 0.10 0.00 42 1020.5
20260504211830 15 253 0.0 1.6 0.00 0.10 0.00 42 1020.3
20260504210333 14 298 0.0 1.6 0.00 0.10 0.00 43 1019.9
20260504204836 14 328 0.0 1.6 0.00 0.89 0.00 43 1019.5
20260504203337 14 302 0.0 1.6 0.00 0.89 0.00 44 1019.2
20260504201821 14 276 0.0 0.0 0.00 0.89 0.00 45 1018.9
20260504200324 14 248 0.0 17.7 0.00 0.89 0.00 45 1018.5
20260504194828 14 344 0.0 1.6 0.00 0.99 0.00 45 1018.0
20260504193335 14 275 0.0 1.6 0.00 0.99 0.00 45 1017.7
20260504191820 14 269 0.0 3.2 0.00 0.99 0.00 45 1017.3
20260504190326 14 275 0.0 4.8 0.00 0.99 0.00 46 1016.9
20260504184833 14 269 0.0 8.0 0.00 1.80 0.00 46 1016.6
20260504183402 14 325 0.0 4.8 0.00 1.80 0.00 47 1016.5
20260504181821 14 319 0.0 14.5 0.00 1.80 0.00 47 1016.0
20260504180326 14 240 0.0 8.0 0.00 1.80 0.00 48 1015.8
20260504174829 14 261 0.0 24.1 0.00 1.80 0.00 47 1015.4
20260504173356 14 300 0.0 20.9 0.00 1.80 0.00 47 1015.0
20260504171843 14 283 0.0 8.0 0.00 1.80 0.00 47 1014.6
20260504170321 14 284 0.0 6.4 0.00 1.80 0.00 46 1014.3
20260504160322 15 338 0.0 24.1 0.00 1.80 0.00 45 1013.1